Weather History for Lee's Summit, MO

Change the Weather History Date:

Wednesday, September 4, 2013

  Actual Average (KMKC) Record (KMKC)
Temperature  
Mean Temperature 74 °F -  
Max Temperature 86 °F 84 °F 96 °F (2012)
Min Temperature 61 °F 64 °F 54 °F (2010)
Cooling Degree Days 8    
Growing Degree Days 24 (Base 50)    
Moisture  
Dew Point 58 °F    
Average Humidity 57    
Maximum Humidity 81    
Minimum Humidity 34    
Precipitation  
Precipitation 0.00 in - - ()
Sea Level Pressure  
Sea Level Pressure 30.12 in    
Wind  
Wind Speed 3 mph (ESE)    
Max Wind Speed 6 mph    
Max Gust Speed -    
Visibility 10 miles    
Events      
Averages and records for this station are not official NWS values.
T = Trace of Precipitation, MM = Missing Value Source: NWS Daily Summary

Daily Weather History Graph

Daily Weather History Graph

Search for Another Location

Airport:

Trip Planner

Search our weather history database for the weather conditions in past years. The results will help you decide how hot, cold, wet, or windy it might be!

Date:

Astronomy

Sep. 04, 2013 Rise Set
Actual Time 6:49 AM CDT 7:42 PM CDT
Civil Twilight 6:22 AM CDT 8:09 PM CDT
Nautical Twilight 5:49 AM CDT 8:42 PM CDT
Astronomical Twilight 5:16 AM CDT 9:15 PM CDT
Moon 6:02 AM CDT (9/4) 7:03 PM CDT (9/4)
Length of Visible Light 13h 47m
Length of Day
12h 53m
Waning Crescent, 1% of the Moon is Illuminated
Sep 4
Waning Crescent
Sep 5
New
Sep 12
First Quarter
Sep 19
Full
Sep 26
Last Quarter

Hourly Weather History & Observations

Time (CDT) Temp. Heat Index Dew Point Humidity Pressure Visibility Wind Dir Wind Speed Gust Speed Precip Events Conditions
12:53 AM 70.0 °F - 55.9 °F 61% 30.06 in 10.0 mi SSE 4.6 mph - N/A   Clear
1:53 AM 70.0 °F - 55.0 °F 59% 30.06 in 10.0 mi SSE 5.8 mph - N/A   Clear
2:53 AM 66.9 °F - 55.0 °F 66% 30.07 in 10.0 mi South 3.5 mph - N/A   Clear
3:53 AM 63.0 °F - 55.0 °F 75% 30.08 in 10.0 mi Calm Calm - N/A   Clear
4:53 AM 64.0 °F - 55.0 °F 73% 30.09 in 10.0 mi Calm Calm - N/A   Clear
5:53 AM 63.0 °F - 55.0 °F 75% 30.09 in 10.0 mi Calm Calm - N/A   Clear
6:53 AM 61.0 °F - 55.0 °F 81% 30.12 in 10.0 mi Calm Calm - N/A   Clear
7:53 AM 64.9 °F - 57.0 °F 75% 30.14 in 10.0 mi ENE 3.5 mph - N/A   Clear
8:53 AM 72.0 °F - 60.1 °F 66% 30.15 in 10.0 mi Calm Calm - N/A   Clear
9:53 AM 78.1 °F - 60.1 °F 54% 30.15 in 10.0 mi Calm Calm - N/A   Clear
10:13 AM 78.8 °F - 59.0 °F 51% 30.18 in 10.0 mi Calm Calm - N/A   Partly Cloudy
10:53 AM 79.0 °F - 57.9 °F 48% 30.17 in 10.0 mi Calm Calm - N/A   Clear
11:53 AM 84.0 °F 83.3 °F 57.0 °F 40% 30.16 in 10.0 mi Calm Calm - N/A   Clear
12:53 PM 84.0 °F 82.9 °F 55.0 °F 37% 30.15 in 10.0 mi Variable 3.5 mph - N/A   Clear
1:53 PM 86.0 °F 84.7 °F 55.9 °F 36% 30.14 in 10.0 mi ENE 5.8 mph - N/A   Clear
2:53 PM 84.9 °F 83.3 °F 54.0 °F 34% 30.12 in 10.0 mi East 5.8 mph - N/A   Clear
3:53 PM 84.9 °F 84.2 °F 57.9 °F 40% 30.11 in 10.0 mi Variable 4.6 mph - N/A   Clear
4:53 PM 82.9 °F 82.6 °F 57.9 °F 42% 30.10 in 10.0 mi ENE 4.6 mph - N/A   Clear
5:53 PM 82.0 °F 82.4 °F 60.1 °F 47% 30.09 in 10.0 mi East 5.8 mph - N/A   Clear
6:53 PM 79.0 °F - 62.1 °F 56% 30.10 in 10.0 mi East 4.6 mph - N/A   Clear
7:53 PM 75.0 °F - 63.0 °F 66% 30.10 in 10.0 mi ESE 3.5 mph - N/A   Clear
8:53 PM 75.9 °F - 60.1 °F 58% 30.12 in 10.0 mi SE 3.5 mph - N/A   Clear
9:53 PM 73.9 °F - 59.0 °F 59% 30.13 in 10.0 mi ESE 3.5 mph - N/A   Clear
10:53 PM 66.0 °F - 59.0 °F 78% 30.14 in 10.0 mi SSE 3.5 mph - N/A   Clear
11:53 PM 73.0 °F - 57.9 °F 59% 30.13 in 10.0 mi SSE 4.6 mph - N/A   Clear